Volver al catálogo

FENGYUN 1C DEB

ActivoSSO
NORAD 29806·DEBRIS·🇨🇳 China

Lanzado May 10, 1999 desde Taiyuan Satellite Launch Center

Loading…

Próximos Pases (próximas 24 horas)

TLE

ActualizadoSource: Space-Track

Época: Sep 14, 2026, 06:22 UTC

1 29806U 99025CY  26257.26530387  .00000550  00000-0  31978-3 0  9997
2 29806  98.7030 270.2053 0028308 186.2980 233.6110 14.12465436 10247

Sigue FENGYUN 1C DEB en tiempo real con AllMySat

Download on the App Store